Flag for U.S.A. Weather past 2 weeks in Simi Valley, California, U.S.A.

Now
68 °F

Overcast.


Feels Like: 68 °F
Forecast: 59 / 80 °F
Wind: 3 mph from South

Location: Van Nuys Airport

Current Time: Aug 20, 2014 at 12:28:48 AM

Latest Report: Aug 19, 2014 at 11:51 PM


Visibility: 10 mi

Pressure: 29.85 "Hg

Humidity: 76%

Dew point: 60 °F

Location of Simi ValleyLocation

Historic Weather in Simi Valley — Graph

°F

Simi Valley temperature yesterday

Maximum temperature yesterday: 82 °F (at 2:51 PM)
Minimum temperature yesterday: 67 °F (at 1:51 AM)
Average temperature yesterday: 72 °F

Past Weeks' High & Low Weather Summary

 TemperatureHumidityPressure
High98 °F (Aug 16, 2:51 PM)87% (Aug 8, 5:51 AM)30.04 "Hg (Aug 8, 5:51 AM)
Low61 °F (Aug 6, 5:51 AM)10% (Aug 5, 3:51 PM)29.73 "Hg (Aug 18, 3:51 PM)
Average76 °F52%29.91 "Hg
* Reported Aug 4 10:51 PM — Aug 19 10:51 PM, Simi Valley, Weather by CustomWeather, © 2014

Note: Actual official high and low records may vary slightly from our data, if they occured in-between our weather recording intervals... More about our weather records

Advertising

Simi Valley weather history for previous 24 hours

 ConditionsComfort  
Time TempWeatherWind HumidityBarometerVisibility
10:51 PM
Aug 19
67 °FOvercast.3 mph79%29.86 "Hg10 mi
9:51 PM67 °FOvercast.6 mph76%29.87 "Hg10 mi
8:51 PM67 °FClear.8 mph76%29.85 "Hg10 mi
7:51 PM69 °FPassing clouds.6 mph70%29.83 "Hg10 mi
6:51 PM72 °FSunny.8 mph64%29.81 "Hg10 mi
5:51 PM76 °FSunny.9 mph56%29.81 "Hg10 mi
4:51 PM78 °FSunny.12 mph52%29.81 "Hg10 mi
3:51 PM79 °FSunny.12 mph50%29.81 "Hg10 mi
2:51 PM82 °FSunny.10 mph43%29.82 "Hg10 mi
1:51 PM81 °FSunny.10 mph44%29.84 "Hg10 mi
12:51 PM80 °FSunny.5 mph45%29.85 "Hg10 mi
11:51 AM75 °FSunny.3 mph55%29.89 "Hg10 mi
10:51 AM72 °FOvercast.9 mph64%29.89 "Hg10 mi
9:51 AM71 °FOvercast.8 mph66%29.88 "Hg10 mi
8:51 AM70 °FOvercast.6 mph68%29.88 "Hg10 mi
7:51 AM69 °FOvercast.6 mph68%29.86 "Hg10 mi
6:51 AM68 °FOvercast.7 mph70%29.85 "Hg10 mi
5:51 AM68 °FOvercast.5 mph73%29.85 "Hg10 mi
4:51 AM68 °FOvercast.5 mph76%29.85 "Hg10 mi
3:51 AM67 °FOvercast.7 mph79%29.84 "Hg10 mi
2:51 AM67 °FOvercast.5 mph79%29.84 "Hg10 mi
1:51 AM67 °FClear.5 mph71%29.84 "Hg10 mi
12:51 AM69 °FClear.5 mph63%29.84 "Hg10 mi
Weather by CustomWeather, © 2014

See weather overviewHow to use our weather pages